Home > Weather > Winamac > Past weeks

Flag for USA Past Weather in Winamac, Indiana, USA — Yesterday and Last 2 Weeks

Now
67 °F

Clear.


Feels Like: 67 °F
Forecast: 63 / 83 °F
Wind: 3 mph from Northeast

Location: Porter County Municipal Airport

Current Time: May 31, 2016 at 2:00:23 AM

Latest Report: May 31, 2016 at 12:56 AM


Visibility: 10 mi

Pressure: 29.98 "Hg

Humidity: 71%

Dew Point: 57 °F

Location of WinamacLocation

Past Weather in Winamac — Graph

°F

Winamac Temperature Yesterday

Maximum temperature yesterday: 86 °F (at 1:56 PM)
Minimum temperature yesterday: 60 °F (at 6:56 AM)
Average temperature yesterday: 74 °F

High & Low Weather Summary for the Past Weeks

 TemperatureHumidityPressure
High87 °F (May 25, 4:56 PM)96% (May 18, 6:56 AM)30.25 "Hg (May 18, 6:56 AM)
Low39 °F (May 18, 5:56 AM)19% (May 23, 5:56 PM)29.84 "Hg (May 26, 6:56 PM)
Average65 °F59%30.05 "Hg
* Reported May 15 11:56 PM — May 30 11:56 PM, Winamac, Weather by CustomWeather, © 2016

Note: Actual official high and low records may vary slightly from our data, if they occured in-between our weather recording intervals... More about our weather records

Advertising

Winamac Weather History for the Previous 24 Hours

Scroll right to see more
 ConditionsComfort  
Time TempWeatherWind HumidityBarometerVisibility
11:56 PM
Mon, May 30
69 °FClear.3 mph68%29.98 "Hg10 mi
10:56 PM70 °FClear.5 mph66%29.98 "Hg10 mi
9:56 PM73 °FClear.3 mph59%29.96 "Hg10 mi
8:56 PM78 °FSunny.3 mph50%29.96 "Hg10 mi
7:56 PM81 °FSunny.6 mph44%29.95 "Hg10 mi
6:56 PM85 °FSunny.7 mph39%29.95 "Hg10 mi
5:56 PM85 °FSunny.8 mph39%29.96 "Hg10 mi
4:56 PM86 °FSunny.6 mph39%29.96 "Hg10 mi
3:56 PM86 °FPassing clouds.10 mph39%29.98 "Hg10 mi
2:56 PM86 °FScattered clouds.7 mph39%29.98 "Hg10 mi
1:56 PM86 °FPartly sunny.12 mph39%30.00 "Hg10 mi
12:56 PM84 °FPassing clouds.14 mph43%30.01 "Hg10 mi
11:56 AM82 °FSunny.10 mph44%30.03 "Hg10 mi
10:56 AM78 °FSunny.N/A50%30.03 "Hg10 mi
9:56 AM75 °FSunny.No wind60%30.03 "Hg10 mi
8:56 AM70 °FSunny.5 mph68%30.03 "Hg10 mi
7:56 AM66 °FPassing clouds.6 mph78%30.03 "Hg10 mi
6:56 AM60 °FSunny.3 mph86%30.03 "Hg10 mi
5:56 AM61 °FClear.No wind83%30.02 "Hg10 mi
4:56 AM63 °FClear.No wind78%30.01 "Hg10 mi
3:56 AM64 °FClear.6 mph75%30.00 "Hg10 mi
2:56 AM64 °FClear.5 mph75%30.00 "Hg10 mi
Weather by CustomWeather, © 2016

See weather overviewHow to use our weather pages